Galesburg, IL

12:04 AM CST on February 21, 2018 (GMT -0600)
Galesburg Municipal

Weather History for KGBG - April, 2012

Change the Weather History Date:

Saturday, April 28, 2012

  Actual Average Record
Temperature  
Mean Temperature 52 °F -  
Max Temperature 59 °F 66 °F 87 °F (1970)
Min Temperature 44 °F 44 °F 33 °F (1950)
Degree Days  
Heating Degree Days 14    
Growing Degree Days 2 (Base 50)    
Moisture  
Dew Point 41 °F    
Average Humidity 68    
Maximum Humidity 80    
Minimum Humidity 42    
Precipitation  
Precipitation 0.00 in - - ()
Sea Level Pressure  
Sea Level Pressure 29.98 in    
Wind  
Wind Speed 15 mph (East)    
Max Wind Speed 21 mph    
Max Gust Speed 31 mph    
Visibility 9 miles    
Events Rain , Thunderstorm    
Averages and records for this station are not official NWS values.
T = Trace of Precipitation, MM = Missing Value Source: NWS Daily Summary

Daily Weather History Graph

Daily Weather History Graph

Search for Another Location

Airport or City:

Trip Planner

Search our weather history database for the weather conditions in past years. The results will help you decide how hot, cold, wet, or windy it might be!

Date:

Astronomy

Apr. 28, 2012 Rise Set
Actual Time 6:03 AM CDT 7:55 PM CDT
Civil Twilight 5:33 AM CDT 8:25 PM CDT
Nautical Twilight 4:57 AM CDT 9:01 PM CDT
Astronomical Twilight 4:18 AM CDT 9:40 PM CDT
Moon 11:42 AM CDT (4/28) 1:20 AM CDT (4/28)
Length of Visible Light 14h 51m
Length of Day
13h 52m
Waxing Crescent, 43% of the Moon is Illuminated
Apr 28
Waxing Crescent
Apr 29
First Quarter
May 5
Full
May 12
Last Quarter
May 20
New

Hourly Weather History & Observations

Time (CDT) Temp. Windchill Dew Point Humidity Pressure Visibility Wind Dir Wind Speed Gust Speed Precip Events Conditions
12:15 AM 50.5 °F - 29.1 °F 44% 29.94 in 10.0 mi East 18.4 mph 26.5 mph N/A   Overcast
12:35 AM 50.5 °F - 28.2 °F 42% 29.94 in 10.0 mi East 17.3 mph 24.2 mph N/A   Overcast
12:55 AM 50.2 °F - 28.4 °F 43% 29.94 in 10.0 mi East 15.0 mph 25.3 mph N/A Thunderstorm Overcast
1:15 AM 50.2 °F - 28.2 °F 43% 29.91 in 10.0 mi East 18.4 mph 31.1 mph N/A   Overcast
1:35 AM 50.0 °F - 28.4 °F 43% 29.91 in 10.0 mi East 20.7 mph 26.5 mph N/A Rain Light Rain
1:55 AM 47.1 °F - 33.4 °F 59% 29.90 in 7.0 mi East 16.1 mph 28.8 mph N/A Rain , Thunderstorm Thunderstorms and Rain
2:15 AM 45.5 °F 38.3 °F 35.2 °F 67% 29.89 in 1.2 mi East 17.3 mph 26.5 mph N/A Rain , Thunderstorm Rain
2:35 AM 44.8 °F 37.4 °F 36.5 °F 73% 29.88 in 4.0 mi East 17.3 mph 25.3 mph N/A Rain , Thunderstorm Light Thunderstorms and Rain
2:55 AM 45.7 °F 40.6 °F 36.1 °F 69% 29.89 in 10.0 mi East 10.4 mph 20.7 mph N/A Thunderstorm Overcast
3:15 AM 46.2 °F 40.1 °F 36.1 °F 68% 29.89 in 10.0 mi East 13.8 mph 18.4 mph N/A   Overcast
3:35 AM 46.4 °F 40.7 °F 36.3 °F 68% 29.89 in 10.0 mi ESE 12.7 mph 21.9 mph N/A   Overcast
3:55 AM 46.6 °F - 36.5 °F 68% 29.88 in 10.0 mi East 13.8 mph 27.6 mph N/A   Overcast
4:15 AM 46.6 °F - 36.5 °F 68% 29.87 in 10.0 mi East 15.0 mph 24.2 mph N/A   Overcast
4:35 AM 46.4 °F 39.5 °F 37.4 °F 71% 29.88 in 10.0 mi East 17.3 mph 26.5 mph N/A   Overcast
4:55 AM 47.3 °F - 36.9 °F 67% 29.88 in 10.0 mi East 18.4 mph 27.6 mph N/A   Overcast
5:15 AM 47.3 °F - 37.4 °F 68% 29.89 in 10.0 mi East 15.0 mph 20.7 mph N/A   Overcast
5:35 AM 47.5 °F - 37.6 °F 69% 29.90 in 10.0 mi East 15.0 mph 23.0 mph N/A   Overcast
5:55 AM 47.5 °F - 38.1 °F 70% 29.89 in 10.0 mi East 13.8 mph 19.6 mph N/A   Overcast
6:15 AM 47.5 °F - 38.1 °F 70% 29.89 in 10.0 mi East 19.6 mph 25.3 mph N/A   Overcast
6:35 AM 47.5 °F - 38.3 °F 70% 29.89 in 10.0 mi East 16.1 mph 21.9 mph N/A   Overcast
6:55 AM 47.7 °F - 38.5 °F 70% 29.90 in 10.0 mi East 13.8 mph 21.9 mph N/A   Overcast
7:15 AM 47.8 °F - 38.8 °F 71% 29.91 in 10.0 mi East 10.4 mph 21.9 mph N/A   Overcast
7:35 AM 48.2 °F - 39.2 °F 71% 29.92 in 10.0 mi ESE 12.7 mph 17.3 mph N/A   Overcast
7:55 AM 48.2 °F - 39.2 °F 71% 29.91 in 10.0 mi East 16.1 mph 21.9 mph N/A   Overcast
8:15 AM 48.2 °F - 39.2 °F 71% 29.91 in 10.0 mi East 12.7 mph 21.9 mph N/A   Overcast
8:35 AM 49.1 °F - 40.3 °F 72% 29.91 in 10.0 mi East 13.8 mph 19.6 mph N/A   Overcast
8:55 AM 49.5 °F - 40.8 °F 72% 29.91 in 10.0 mi East 13.8 mph 21.9 mph N/A   Overcast
9:15 AM 50.4 °F - 41.4 °F 71% 29.91 in 10.0 mi East 18.4 mph 23.0 mph N/A   Overcast
9:35 AM 50.7 °F - 41.7 °F 71% 29.92 in 10.0 mi ESE 13.8 mph 18.4 mph N/A   Overcast
9:55 AM 52.0 °F - 42.4 °F 70% 29.92 in 10.0 mi East 11.5 mph 18.4 mph N/A   Overcast
10:15 AM 53.4 °F - 43.0 °F 68% 29.92 in 10.0 mi East 12.7 mph 19.6 mph N/A   Overcast
10:35 AM 53.6 °F - 42.8 °F 67% 29.94 in 10.0 mi East 13.8 mph - N/A   Overcast
10:55 AM 54.1 °F - 43.2 °F 66% 29.95 in 10.0 mi East 12.7 mph 18.4 mph N/A   Overcast
11:15 AM 54.5 °F - 43.7 °F 67% 29.95 in 10.0 mi East 12.7 mph 18.4 mph N/A   Overcast
11:35 AM 55.2 °F - 43.9 °F 66% 29.95 in 10.0 mi East 12.7 mph 18.4 mph N/A   Overcast
11:55 AM 56.5 °F - 44.6 °F 64% 29.96 in 10.0 mi ENE 13.8 mph - N/A   Overcast
12:15 PM 58.1 °F - 45.5 °F 63% 29.95 in 10.0 mi ENE 12.7 mph - N/A   Overcast
12:35 PM 58.6 °F - 46.2 °F 63% 29.94 in 7.0 mi East 11.5 mph - N/A   Overcast
12:55 PM 59.0 °F - 45.9 °F 62% 29.94 in 7.0 mi NE 13.8 mph - N/A   Overcast
1:15 PM 59.4 °F - 45.9 °F 61% 29.93 in 10.0 mi ENE 10.4 mph - N/A   Overcast
1:35 PM 57.9 °F - 46.2 °F 65% 29.95 in 10.0 mi ENE 11.5 mph - N/A   Overcast
1:55 PM 57.2 °F - 45.5 °F 65% 29.98 in 10.0 mi East 9.2 mph 16.1 mph N/A   Overcast
2:15 PM 56.5 °F - 45.0 °F 65% 30.00 in 10.0 mi ESE 8.1 mph - N/A   Overcast
2:35 PM 56.1 °F - 45.1 °F 67% 30.02 in 10.0 mi East 9.2 mph - N/A   Overcast
2:55 PM 57.0 °F - 46.0 °F 67% 29.98 in 10.0 mi ENE 17.3 mph - N/A   Overcast
3:15 PM 55.4 °F - 45.1 °F 68% 30.00 in 10.0 mi East 13.8 mph 19.6 mph N/A   Overcast
3:35 PM 55.4 °F - 45.1 °F 68% 30.01 in 10.0 mi ENE 12.7 mph - N/A   Overcast
3:55 PM 56.1 °F - 45.5 °F 68% 30.01 in 10.0 mi NE 13.8 mph - N/A   Overcast
4:15 PM 54.7 °F - 44.8 °F 69% 30.03 in 10.0 mi ENE 11.5 mph - N/A   Overcast
4:35 PM 54.0 °F - 44.8 °F 71% 30.03 in 10.0 mi ENE 12.7 mph - N/A   Overcast
4:55 PM 54.0 °F - 44.4 °F 70% 30.03 in 10.0 mi ENE 13.8 mph - N/A   Overcast
5:15 PM 53.6 °F - 44.6 °F 72% 30.03 in 10.0 mi ENE 15.0 mph - N/A   Overcast
5:35 PM 52.7 °F - 43.9 °F 72% 30.02 in 10.0 mi NE 15.0 mph 19.6 mph N/A   Overcast
5:55 PM 52.0 °F - 43.7 °F 73% 30.03 in 7.0 mi ENE 16.1 mph - N/A   Overcast
6:15 PM 51.8 °F - 43.7 °F 74% 30.04 in 7.0 mi ENE 10.4 mph - N/A   Overcast
6:35 PM 51.8 °F - 43.2 °F 72% 30.06 in 7.0 mi ENE 10.4 mph 18.4 mph N/A   Overcast
6:55 PM 51.8 °F - 43.7 °F 74% 30.07 in 7.0 mi East 6.9 mph 10.4 mph N/A   Overcast
7:15 PM 51.3 °F - 43.7 °F 75% 30.06 in 7.0 mi ENE 11.5 mph - N/A   Overcast
7:35 PM 50.7 °F - 43.7 °F 77% 30.05 in 7.0 mi ENE 11.5 mph - N/A   Overcast
7:55 PM 50.0 °F - 43.7 °F 79% 30.07 in 7.0 mi ENE 11.5 mph 17.3 mph N/A   Overcast
8:15 PM 49.6 °F - 43.7 °F 80% 30.07 in 7.0 mi ENE 15.0 mph 19.6 mph N/A   Overcast
8:35 PM 49.8 °F - 43.3 °F 78% 30.08 in 7.0 mi ENE 11.5 mph - N/A   Overcast
8:55 PM 50.0 °F - 42.8 °F 76% 30.08 in 10.0 mi ENE 13.8 mph 20.7 mph N/A   Overcast
9:15 PM 49.5 °F - 42.1 °F 76% 30.09 in 10.0 mi ENE 11.5 mph - N/A   Mostly Cloudy
9:35 PM 49.1 °F - 41.5 °F 75% 30.09 in 10.0 mi ENE 12.7 mph 17.3 mph N/A   Scattered Clouds
9:55 PM 49.5 °F - 41.5 °F 74% 30.11 in 10.0 mi ENE 10.4 mph - N/A   Mostly Cloudy
10:15 PM 49.6 °F - 41.0 °F 72% 30.12 in 10.0 mi East 9.2 mph - N/A   Overcast
10:35 PM 49.5 °F - 40.8 °F 72% 30.12 in 10.0 mi East 11.5 mph - N/A   Overcast
10:55 PM 49.3 °F - 40.5 °F 72% 30.14 in 10.0 mi East 9.2 mph - N/A   Overcast
11:15 PM 49.5 °F - 40.5 °F 71% 30.15 in 10.0 mi East 6.9 mph - N/A   Overcast
11:35 PM 49.1 °F - 40.5 °F 72% 30.15 in 10.0 mi ENE 10.4 mph - N/A   Overcast
11:55 PM 49.1 °F - 40.1 °F 71% 30.15 in 10.0 mi ENE 6.9 mph - N/A   Overcast